• In Deutschland
  • Länderverzeichnis
  • Für 7 Tage
  • Wassertemperatur
  • Satellitenkarten
  • Wetterkarte
  • Widgets
  • user-avatar
    Anmelden

    Stündliche Wetter Bad Camberg

    Heute, 20 Oktober, Freitag

    Zeit Temperatur Niederschläge Wind Luftdruck Luftfeuchtigkeit
    00:00 +14°C° 0 mm 1 m/S 739 mmHg 70%
    01:00 +14°C° 0 mm 1 m/S 739 mmHg 70%
    02:00 +14°C° 0 mm 2 m/S 739 mmHg 69%
    03:00 +14°C° 0 mm 2 m/S 739 mmHg 68%
    04:00 +14°C° 0 mm 2 m/S 739 mmHg 68%
    05:00 +14°C° 0,1 mm 2 m/S 739 mmHg 70%
    06:00 +14°C° 0,1 mm 2 m/S 739 mmHg 72%
    07:00 +13°C° 0,1 mm 2 m/S 739 mmHg 73%
    08:00 +14°C° 1,2 mm 2 m/S 740 mmHg 77%
    09:00 +13°C° 1,2 mm 3 m/S 740 mmHg 81%
    10:00 +13°C° 1,2 mm 3 m/S 740 mmHg 84%
    11:00 +14°C° 0,5 mm 3 m/S 741 mmHg 84%
    12:00 +14°C° 0,5 mm 4 m/S 741 mmHg 84%
    13:00 +14°C° 0,5 mm 4 m/S 741 mmHg 85%
    14:00 +14°C° 0,1 mm 4 m/S 741 mmHg 81%
    15:00 +15°C° 0,1 mm 4 m/S 741 mmHg 78%
    16:00 +15°C° 0,1 mm 4 m/S 741 mmHg 75%
    17:00 +14°C° 0 mm 4 m/S 741 mmHg 78%
    18:00 +12°C° 0 mm 3 m/S 741 mmHg 80%
    19:00 +11°C° 0 mm 3 m/S 742 mmHg 83%
    20:00 +10°C° 0 mm 2 m/S 742 mmHg 84%
    21:00 +10°C° 0 mm 2 m/S 742 mmHg 86%
    22:00 +9°C° 0 mm 2 m/S 742 mmHg 87%
    23:00 +9°C° 0 mm 2 m/S 742 mmHg 87%

    Morgen, 21 Oktober, Samstag

    Zeit Temperatur Niederschläge Wind Luftdruck Luftfeuchtigkeit
    00:00 +11°C° 0 mm 1 m/S 742 mmHg 88%
    01:00 +11°C° 0 mm 1 m/S 742 mmHg 88%
    02:00 +11°C° 0 mm 1 m/S 742 mmHg 90%
    03:00 +10°C° 0 mm 2 m/S 741 mmHg 91%
    04:00 +12°C° 0 mm 2 m/S 741 mmHg 92%
    05:00 +12°C° 0 mm 2 m/S 741 mmHg 93%
    06:00 +12°C° 0 mm 2 m/S 741 mmHg 93%
    07:00 +12°C° 0 mm 2 m/S 740 mmHg 93%
    08:00 +13°C° 0 mm 3 m/S 740 mmHg 89%
    09:00 +14°C° 0 mm 3 m/S 740 mmHg 84%
    10:00 +15°C° 0 mm 4 m/S 740 mmHg 79%
    11:00 +15°C° 0,1 mm 4 m/S 740 mmHg 79%
    12:00 +17°C° 0,1 mm 4 m/S 740 mmHg 79%
    13:00 +17°C° 0,1 mm 4 m/S 740 mmHg 78%
    14:00 +15°C° 0,2 mm 4 m/S 740 mmHg 80%
    15:00 +15°C° 0,2 mm 4 m/S 740 mmHg 82%
    16:00 +16°C° 0,2 mm 3 m/S 740 mmHg 84%
    17:00 +14°C° 0,3 mm 3 m/S 740 mmHg 84%
    18:00 +13°C° 0,3 mm 3 m/S 741 mmHg 85%
    19:00 +12°C° 0,3 mm 3 m/S 741 mmHg 86%
    20:00 +12°C° 0,1 mm 3 m/S 741 mmHg 87%
    21:00 +11°C° 0,1 mm 4 m/S 741 mmHg 87%
    22:00 +10°C° 0,1 mm 4 m/S 742 mmHg 88%
    23:00 +10°C° 0 mm 4 m/S 742 mmHg 87%

    übermorgen, 22 Oktober, Sonntag

    Zeit Temperatur Niederschläge Wind Luftdruck Luftfeuchtigkeit
    00:00 +10°C° 0 mm 4 m/S 742 mmHg 87%
    01:00 +8°C° 0 mm 4 m/S 742 mmHg 86%
    02:00 +8°C° 0 mm 4 m/S 742 mmHg 87%
    03:00 +8°C° 0 mm 4 m/S 742 mmHg 87%
    04:00 +7°C° 0 mm 4 m/S 741 mmHg 87%
    05:00 +7°C° 0 mm 4 m/S 741 mmHg 86%
    06:00 +7°C° 0 mm 4 m/S 741 mmHg 86%
    07:00 +7°C° 0 mm 4 m/S 741 mmHg 85%
    08:00 +8°C° 0 mm 4 m/S 741 mmHg 82%
    09:00 +8°C° 0 mm 5 m/S 741 mmHg 79%
    10:00 +8°C° 0 mm 5 m/S 742 mmHg 75%
    11:00 +9°C° 0 mm 5 m/S 741 mmHg 74%
    12:00 +9°C° 0 mm 5 m/S 741 mmHg 72%
    13:00 +9°C° 0 mm 5 m/S 741 mmHg 70%
    14:00 +10°C° 0,1 mm 4 m/S 741 mmHg 70%
    15:00 +10°C° 0,1 mm 4 m/S 741 mmHg 69%
    16:00 +10°C° 0,1 mm 4 m/S 741 mmHg 69%
    17:00 +10°C° 0 mm 3 m/S 741 mmHg 73%
    18:00 +9°C° 0 mm 3 m/S 741 mmHg 76%
    19:00 +8°C° 0 mm 3 m/S 741 mmHg 80%
    20:00 +8°C° 0 mm 3 m/S 741 mmHg 82%
    21:00 +7°C° 0 mm 3 m/S 742 mmHg 84%
    22:00 +7°C° 0 mm 3 m/S 742 mmHg 86%
    23:00 +7°C° 0,1 mm 3 m/S 742 mmHg 87%

    23 Oktober, Montag

    Zeit Temperatur Niederschläge Wind Luftdruck Luftfeuchtigkeit
    00:00 +7°C° 0,1 mm 3 m/S 742 mmHg 88%
    01:00 +7°C° 0,1 mm 3 m/S 742 mmHg 88%
    02:00 +7°C° 0,1 mm 3 m/S 742 mmHg 89%
    03:00 +7°C° 0,1 mm 3 m/S 742 mmHg 90%
    04:00 +8°C° 0,1 mm 2 m/S 742 mmHg 91%
    05:00 +8°C° 0,1 mm 2 m/S 742 mmHg 91%
    06:00 +8°C° 0,1 mm 2 m/S 742 mmHg 91%
    07:00 +8°C° 0,1 mm 2 m/S 742 mmHg 91%
    08:00 +9°C° 0,1 mm 3 m/S 743 mmHg 88%
    09:00 +10°C° 0,1 mm 3 m/S 743 mmHg 86%
    10:00 +10°C° 0,1 mm 4 m/S 744 mmHg 83%
    11:00 +11°C° 0,1 mm 4 m/S 744 mmHg 80%
    12:00 +11°C° 0,1 mm 3 m/S 744 mmHg 77%
    13:00 +12°C° 0,1 mm 3 m/S 744 mmHg 74%
    14:00 +12°C° 0 mm 3 m/S 745 mmHg 74%
    15:00 +12°C° 0 mm 3 m/S 745 mmHg 74%
    16:00 +13°C° 0 mm 2 m/S 745 mmHg 74%
    17:00 +12°C° 0,1 mm 2 m/S 745 mmHg 79%
    18:00 +10°C° 0,1 mm 2 m/S 745 mmHg 84%
    19:00 +9°C° 0,1 mm 2 m/S 746 mmHg 89%
    20:00 +9°C° 0,2 mm 2 m/S 746 mmHg 90%
    21:00 +9°C° 0,2 mm 2 m/S 746 mmHg 91%
    22:00 +9°C° 0,2 mm 2 m/S 746 mmHg 92%
    23:00 +10°C° 0 mm 2 m/S 746 mmHg 93%

    24 Oktober, Dienstag

    Zeit Temperatur Niederschläge Wind Luftdruck Luftfeuchtigkeit
    00:00 +10°C° 0 mm 2 m/S 746 mmHg 93%
    01:00 +10°C° 0 mm 2 m/S 746 mmHg 94%
    02:00 +10°C° 0,2 mm 2 m/S 746 mmHg 94%
    03:00 +10°C° 0,2 mm 2 m/S 746 mmHg 94%
    04:00 +11°C° 0,2 mm 1 m/S 746 mmHg 95%
    05:00 +11°C° 0,1 mm 1 m/S 746 mmHg 95%
    06:00 +12°C° 0,1 mm 1 m/S 746 mmHg 95%
    07:00 +12°C° 0,1 mm 1 m/S 746 mmHg 95%
    08:00 +13°C° 0,1 mm 2 m/S 746 mmHg 93%
    09:00 +14°C° 0,1 mm 2 m/S 747 mmHg 91%
    10:00 +15°C° 0,1 mm 2 m/S 747 mmHg 89%
    11:00 +15°C° 0 mm 2 m/S 747 mmHg 87%
    12:00 +16°C° 0 mm 2 m/S 747 mmHg 86%
    13:00 +16°C° 0 mm 2 m/S 747 mmHg 84%
    14:00 +16°C° 0 mm 2 m/S 748 mmHg 85%
    15:00 +16°C° 0 mm 2 m/S 748 mmHg 85%
    16:00 +16°C° 0 mm 1 m/S 748 mmHg 86%
    17:00 +16°C° 0 mm 1 m/S 748 mmHg 89%
    18:00 +15°C° 0 mm 1 m/S 748 mmHg 91%
    19:00 +14°C° 0 mm 1 m/S 748 mmHg 94%
    20:00 +14°C° 0,1 mm 1 m/S 749 mmHg 95%
    21:00 +14°C° 0,1 mm 1 m/S 749 mmHg 95%
    22:00 +14°C° 0,1 mm 1 m/S 749 mmHg 96%
    23:00 +14°C° 0,1 mm 1 m/S 749 mmHg 96%

    25 Oktober, Mittwoch

    Zeit Temperatur Niederschläge Wind Luftdruck Luftfeuchtigkeit
    00:00 +14°C° 0,1 mm 1 m/S 749 mmHg 96%
    01:00 +14°C° 0,1 mm 1 m/S 750 mmHg 96%
    02:00 +14°C° 0 mm 1 m/S 750 mmHg 96%
    03:00 +14°C° 0 mm 1 m/S 750 mmHg 96%
    04:00 +13°C° 0 mm 0 m/S 750 mmHg 96%
    05:00 +13°C° 0 mm 0 m/S 750 mmHg 96%
    06:00 +13°C° 0 mm 0 m/S 750 mmHg 96%
    07:00 +12°C° 0 mm 0 m/S 750 mmHg 96%
    08:00 +13°C° 0 mm 0 m/S 751 mmHg 94%
    09:00 +14°C° 0 mm 0 m/S 751 mmHg 91%
    10:00 +16°C° 0 mm 1 m/S 751 mmHg 89%
    11:00 +16°C° 0 mm 1 m/S 751 mmHg 86%
    12:00 +18°C° 0 mm 1 m/S 751 mmHg 83%
    13:00 +19°C° 0 mm 1 m/S 751 mmHg 80%
    14:00 +19°C° 0 mm 1 m/S 751 mmHg 80%
    15:00 +18°C° 0 mm 1 m/S 751 mmHg 81%
    16:00 +18°C° 0 mm 1 m/S 751 mmHg 82%
    17:00 +16°C° 0 mm 1 m/S 751 mmHg 85%
    18:00 +15°C° 0 mm 1 m/S 751 mmHg 88%
    19:00 +15°C° 0 mm 1 m/S 751 mmHg 91%
    20:00 +14°C° 0 mm 1 m/S 752 mmHg 91%
    21:00 +14°C° 0 mm 1 m/S 752 mmHg 92%
    22:00 +13°C° 0 mm 1 m/S 752 mmHg 93%
    23:00 +13°C° 0 mm 1 m/S 752 mmHg 93%
    Mehr zeigen